Terminal Aerodrome Forecast
Issued by NWS Upton, NY

Home | Current Version | Previous Version | Text Only | Print | Product List | Glossary On
Versions: 1 2 3 4 5 6 7 8 9 10 11 12 13 14 15 16 17 18 19 20 21 22 23 24 25 26 27 28 29 30 31 32 33 34 35 36 37 38 39
000
FTUS41 KOKX 281331 AAA
TAFJFK
TAF AMD
KJFK 281331Z 2814/0118 09004KT P6SM OVC100
     FM281600 13006KT P6SM BKN035
     FM282100 14010KT P6SM BKN020 OVC040
     FM010000 15010KT 3SM BR BKN006 OVC010
     FM010200 17010KT 1SM RA BR OVC005
     FM010700 18010KT 1SM -RA BR OVC004 WS020/24045KT
     FM010900 19009KT 3SM BR OVC004 WS020/24045KT
     FM011500 21013G21KT 5SM BR OVC008 PROB30 0115/0117 3SM RA=

USA.gov is the U.S. government's official web portal to all federal, state and local government web resources and services.